FW2998 Weather Reports


time (UTC)temp
C
wind
direction
speed
KPH
gust
KPH
rain 1hr
cm
rain 24hr
cm
rain mn
cm
humidity
%
barometer
mb
20260508071539 14 0 0.0 0.0 0.00 0.41 0.03 85 1014.6
20260508071019 14 0 0.0 0.0 0.00 0.41 0.03 85 1014.5
20260508070523 14 0 0.0 0.0 0.00 0.41 0.03 85 1014.6
20260508070036 15 0 0.0 0.0 0.00 0.41 0.03 84 1014.5
20260508065522 15 0 0.0 0.0 0.00 0.43 0.03 84 1014.4
20260508065020 15 0 0.0 0.0 0.00 0.43 0.03 84 1014.3
20260508064540 15 0 0.0 0.0 0.00 0.43 0.03 84 1014.3
20260508064022 15 0 0.0 0.0 0.00 0.43 0.03 84 1014.5
20260508063519 15 0 0.0 0.0 0.00 0.43 0.03 84 1014.5
20260508063037 15 0 0.0 0.0 0.00 0.43 0.03 84 1014.6
20260508062519 15 0 0.0 0.0 0.00 0.43 0.03 84 1014.6
20260508062020 15 0 0.0 0.0 0.00 0.43 0.03 83 1014.6
20260508061536 15 0 0.0 0.0 0.00 0.43 0.03 84 1014.7
20260508061024 15 0 0.0 0.0 0.00 0.43 0.03 83 1014.8
20260508060520 15 0 0.0 0.0 0.00 0.43 0.03 83 1014.8
20260508060055 15 0 0.0 0.0 0.00 0.43 0.03 83 1014.8
20260508055522 15 0 0.0 0.0 0.00 0.46 0.03 83 1014.7
20260508055022 15 0 0.0 0.0 0.00 0.46 0.03 83 1014.7
20260508054609 16 0 0.0 0.0 0.00 0.46 0.03 83 1014.7
20260508054022 16 0 0.0 0.0 0.00 0.46 0.03 83 1014.8
20260508053521 16 0 0.0 0.0 0.00 0.46 0.03 82 1014.5
20260508053046 16 0 0.0 1.6 0.00 0.46 0.03 82 1015.0
20260508052520 16 0 0.0 1.6 0.00 0.46 0.03 81 1014.8
20260508052022 16 0 0.0 1.6 0.00 0.46 0.03 80 1014.6
20260508051541 16 0 0.0 0.0 0.00 0.46 0.03 80 1014.7
20260508051023 16 0 0.0 0.0 0.00 0.46 0.03 80 1014.7
20260508050521 16 0 0.0 0.0 0.03 0.46 0.03 79 1014.6
20260508050036 16 0 0.0 0.0 0.03 0.46 0.03 80 1014.6
20260508045521 16 0 0.0 0.0 0.03 0.48 0.03 79 1014.6
20260508045021 16 0 0.0 0.0 0.03 0.48 0.03 79 1014.5
20260508044535 16 0 0.0 6.4 0.03 0.48 0.03 79 1014.4
20260508044021 16 0 0.0 6.4 0.03 0.48 0.03 79 1014.3
20260508043520 16 0 0.0 9.7 0.03 0.48 0.03 78 1014.3
20260508043037 17 32 0.0 9.7 0.03 0.48 0.03 78 1014.2
20260508042522 17 0 0.0 9.7 0.03 0.48 0.03 78 1014.2
20260508042019 17 0 0.0 9.7 0.03 0.48 0.03 77 1014.1
20260508041537 17 0 0.0 9.7 0.03 0.48 0.03 77 1014.1
20260508041022 17 0 1.6 9.7 0.00 0.46 0.00 76 1014.0
20260508040519 17 28 0.0 6.4 0.00 0.46 0.00 76 1014.1
20260508040037 17 109 0.0 6.4 0.00 0.46 0.00 76 1014.1
20260508035522 17 0 0.0 12.9 0.00 0.58 0.46 75 1014.0
20260508035022 18 0 0.0 12.9 0.00 0.58 0.46 74 1014.0
20260508034546 18 49 0.0 8.0 0.00 0.58 0.46 74 1014.0
20260508034021 18 340 0.0 8.0 0.00 0.58 0.46 73 1014.0
20260508033520 18 0 1.6 8.0 0.00 0.58 0.46 73 1013.8
20260508033036 18 0 0.0 6.4 0.00 0.58 0.46 75 1013.8
20260508032522 19 98 0.0 8.0 0.00 0.58 0.46 77 1013.7
20260508032021 20 0 0.0 9.7 0.00 0.58 0.46 77 1013.7
20260508031536 20 109 1.6 16.1 0.00 0.58 0.46 77 1013.4
20260508031019 20 0 1.6 16.1 0.03 0.58 0.46 77 1013.5
20260508030519 20 0 1.6 16.1 0.03 0.58 0.46 77 1013.3
20260508030040 20 42 0.0 17.7 0.03 0.58 0.46 78 1013.3
20260508025519 21 101 0.0 17.7 0.03 0.66 0.46 78 1013.1
20260508025019 21 74 0.0 17.7 0.03 0.66 0.46 79 1013.2
20260508024542 21 0 0.0 6.4 0.03 0.66 0.46 78 1012.9
20260508024019 21 0 0.0 6.4 0.03 0.66 0.46 78 1012.7
20260508023521 21 0 0.0 0.0 0.03 0.66 0.46 78 1012.7
20260508023036 21 0 0.0 0.0 0.03 0.66 0.46 77 1012.4
20260508022524 21 0 0.0 0.0 0.03 0.66 0.46 77 1012.2
20260508022019 21 0 0.0 4.8 0.03 0.66 0.46 77 1012.2
20260508021532 21 0 0.0 6.4 0.00 0.64 0.43 76 1012.0
20260508021024 21 0 0.0 6.4 0.00 0.64 0.43 76 1011.9
20260508020520 21 29 0.0 6.4 0.00 0.64 0.43 76 1011.8
20260508020034 21 0 0.0 8.0 0.00 0.64 0.43 76 1011.9
20260508015519 21 0 1.6 8.0 0.00 0.64 0.43 76 1011.6
20260508015019 22 0 0.0 6.4 0.00 0.64 0.43 75 1011.4
20260508014540 22 0 0.0 6.4 0.00 0.64 0.43 75 1011.3
20260508014021 22 0 0.0 6.4 0.00 0.64 0.43 74 1011.1
20260508013519 22 0 0.0 6.4 0.00 0.64 0.43 74 1011.1
20260508013037 22 277 0.0 6.4 0.00 0.64 0.43 74 1011.0
20260508012522 22 0 0.0 4.8 0.00 0.64 0.43 73 1011.0
20260508012021 22 0 0.0 1.6 0.00 0.64 0.43 73 1010.9
20260508011537 22 0 0.0 3.2 0.00 0.64 0.43 72 1010.8
20260508011020 22 0 0.0 4.8 0.00 0.64 0.43 72 1010.8
20260508010520 22 0 0.0 11.3 0.00 0.64 0.43 72 1010.7
20260508010048 23 0 0.0 11.3 0.00 0.64 0.43 71 1010.7
20260508005519 23 0 0.0 11.3 0.03 0.64 0.43 71 1010.7
20260508005021 23 0 0.0 11.3 0.03 0.64 0.43 71 1010.6
20260508004534 23 0 0.0 9.7 0.03 0.64 0.43 70 1010.5
20260508004021 23 0 0.0 9.7 0.03 0.64 0.43 70 1010.4
20260508003520 23 0 0.0 11.3 0.03 0.64 0.43 70 1010.2
20260508003036 23 0 0.0 11.3 0.03 0.64 0.43 69 1010.2
20260508002520 23 0 0.0 12.9 0.03 0.64 0.43 69 1010.1
20260508002019 23 315 1.6 12.9 0.03 0.64 0.43 68 1009.9
20260508001536 23 0 1.6 11.3 0.03 0.64 0.43 68 1009.9
20260508001019 24 0 0.0 12.9 0.03 0.64 0.43 68 1009.7
20260508000524 24 0 0.0 14.5 0.03 0.64 0.43 68 1009.6
20260508000036 24 237 1.6 19.3 0.03 0.64 0.43 69 1009.6
20260507235523 24 287 0.0 19.3 0.00 0.61 0.41 69 1009.5
20260507235019 24 0 3.2 19.3 0.00 0.61 0.41 68 1009.4
20260507234532 25 163 3.2 14.5 0.00 0.61 0.41 69 1009.3
20260507234019 25 236 3.2 14.5 0.00 0.61 0.41 69 1009.3
20260507233520 25 254 1.6 24.1 0.00 0.61 0.41 69 1009.3
20260507233037 25 298 3.2 24.1 0.00 0.61 0.41 69 1009.3
20260507232518 25 302 4.8 16.1 0.00 0.61 0.41 69 1009.2
20260507232020 25 289 1.6 16.1 0.00 0.61 0.41 70 1009.0
20260507231543 25 0 0.0 20.9 0.03 0.61 0.41 70 1009.0
20260507231019 25 309 3.2 20.9 0.03 0.61 0.41 69 1008.9
20260507230519 25 0 0.0 17.7 0.03 0.61 0.41 70 1008.9
20260507230040 25 0 1.6 17.7 0.03 0.61 0.41 70 1009.0
20260507225520 25 331 1.6 11.3 0.03 0.61 0.41 70 1008.9
20260507225020 26 250 1.6 9.7 0.03 0.61 0.41 70 1009.0
20260507224536 26 0 0.0 14.5 0.03 0.61 0.41 69 1009.0
20260507224020 26 117 3.2 14.5 0.03 0.61 0.41 69 1009.0
20260507223519 26 326 1.6 11.3 0.03 0.61 0.41 68 1008.8
20260507223038 26 0 0.0 4.8 0.03 0.61 0.41 68 1008.8
20260507222519 26 0 0.0 14.5 0.03 0.61 0.41 68 1008.8
20260507222020 26 294 3.2 14.5 0.03 0.61 0.41 67 1008.8
20260507221537 26 0 0.0 19.3 0.00 0.58 0.38 67 1008.8
20260507221020 27 273 1.6 19.3 0.00 0.58 0.38 66 1008.8
20260507220519 27 277 1.6 14.5 0.00 0.58 0.38 65 1008.9
20260507220037 27 273 0.0 4.8 0.00 0.58 0.38 66 1008.8
20260507215521 27 0 0.0 9.7 0.00 0.58 0.38 66 1008.8
20260507215019 27 0 1.6 11.3 0.00 0.58 0.38 65 1008.7
20260507214536 27 132 0.0 12.9 0.00 0.58 0.38 66 1008.8
20260507214020 27 284 1.6 16.1 0.00 0.58 0.38 67 1008.8
20260507213520 27 5 0.0 16.1 0.00 0.58 0.38 68 1008.7
20260507213034 27 0 3.2 16.1 0.00 0.58 0.38 69 1008.7
20260507212520 26 0 0.0 12.9 0.00 0.58 0.38 70 1008.7
20260507212019 26 0 1.6 12.9 0.00 0.58 0.38 71 1008.7
20260507211539 26 265 0.0 11.3 0.03 0.58 0.38 73 1008.8
20260507211021 26 0 0.0 16.1 0.03 0.58 0.38 74 1009.0
20260507210519 25 0 1.6 16.1 0.03 0.58 0.38 73 1008.9
20260507210036 25 0 0.0 12.9 0.03 0.58 0.38 74 1009.1
20260507205519 25 313 1.6 12.9 0.03 0.58 0.38 74 1009.1
20260507205020 25 315 1.6 11.3 0.03 0.58 0.38 74 1009.3
20260507204539 25 154 1.6 11.3 0.03 0.58 0.38 74 1009.1
20260507204020 25 0 0.0 12.9 0.03 0.58 0.38 75 1009.3
20260507203519 25 302 3.2 16.1 0.03 0.58 0.38 76 1009.3
20260507203038 25 0 4.8 16.1 0.05 0.58 0.38 76 1009.3
20260507202519 25 0 1.6 14.5 0.05 0.58 0.38 78 1009.2
20260507202019 24 0 1.6 11.3 0.03 0.56 0.36 78 1009.3
20260507201543 24 288 3.2 12.9 0.03 0.56 0.36 78 1009.3
20260507201021 25 352 3.2 12.9 0.03 0.56 0.36 79 1009.2
20260507200520 25 0 1.6 16.1 0.03 0.56 0.36 78 1009.2
20260507200040 25 208 1.6 16.1 0.03 0.56 0.36 78 1009.2
20260507195520 25 171 3.2 14.5 0.03 0.56 0.36 78 1009.2
20260507195020 25 0 1.6 14.5 0.03 0.56 0.36 77 1009.1
20260507194537 25 232 1.6 17.7 0.03 0.56 0.36 77 1009.0
20260507194053 25 0 3.2 17.7 0.03 0.56 0.36 80 1009.0
20260507193519 25 299 1.6 11.3 0.03 0.56 0.36 81 1008.9
20260507193038 25 0 1.6 14.5 0.00 0.53 0.33 84 1008.9
20260507192518 24 311 3.2 14.5 0.00 0.53 0.33 84 1008.9
20260507192020 24 312 0.0 11.3 0.00 0.53 0.33 89 1008.9
20260507191536 23 316 1.6 16.1 0.00 0.53 0.33 90 1009.0
20260507191019 23 0 1.6 16.1 0.00 0.53 0.33 92 1008.9
20260507190521 23 0 1.6 12.9 0.00 0.53 0.33 94 1009.1
20260507190035 23 161 0.0 6.4 0.00 0.53 0.33 95 1009.0
20260507185519 22 0 0.0 3.2 0.00 0.53 0.33 96 1009.1
20260507185019 22 0 0.0 3.2 0.03 0.53 0.33 96 1009.1
20260507184532 22 0 0.0 14.5 0.03 0.53 0.33 97 1009.2
20260507184019 22 0 1.6 14.5 0.03 0.53 0.33 97 1009.1
20260507183524 22 0 0.0 6.4 0.03 0.53 0.33 98 1009.3
20260507183046 22 0 0.0 6.4 0.03 0.53 0.33 97 1009.4
20260507182520 22 286 0.0 6.4 0.03 0.53 0.33 97 1009.3
20260507182022 22 0 0.0 6.4 0.03 0.53 0.33 97 1009.3
20260507181541 22 0 0.0 1.6 0.03 0.53 0.33 98 1009.2
20260507181020 22 0 0.0 1.6 0.03 0.53 0.33 98 1009.1
20260507180519 21 0 0.0 1.6 0.03 0.53 0.33 97 1009.0
20260507180040 21 0 0.0 1.6 0.03 0.53 0.33 97 1009.1
20260507175520 21 0 0.0 8.0 0.03 0.53 0.33 98 1009.4
20260507175020 21 0 0.0 8.0 0.00 0.51 0.30 98 1009.4
20260507174535 21 295 0.0 6.4 0.00 0.51 0.30 98 1009.5
20260507174020 21 0 0.0 3.2 0.03 0.51 0.30 98 1009.3
20260507173520 21 242 0.0 3.2 0.03 0.51 0.30 98 1009.4
20260507173035 21 0 0.0 1.6 0.03 0.51 0.30 98 1009.5
20260507172520 21 0 0.0 1.6 0.03 0.51 0.30 98 1009.6
20260507172019 21 0 0.0 3.2 0.03 0.51 0.30 98 1009.8
20260507171548 21 0 0.0 3.2 0.03 0.51 0.30 98 1009.9
20260507171019 21 0 0.0 3.2 0.03 0.51 0.30 98 1009.8
20260507170520 20 0 0.0 0.0 0.03 0.51 0.30 98 1009.6
20260507170037 20 0 0.0 0.0 0.03 0.51 0.30 98 1010.1
20260507165519 20 0 0.0 0.0 0.03 0.51 0.30 97 1009.8
20260507165019 20 0 0.0 0.0 0.03 0.51 0.30 98 1010.1
20260507164544 20 0 0.0 1.6 0.03 0.51 0.30 98 1010.1
20260507164019 20 0 0.0 1.6 0.00 0.48 0.28 97 1010.2
20260507163521 20 0 0.0 1.6 0.00 0.48 0.28 98 1010.2
20260507163043 20 0 0.0 1.6 0.00 0.48 0.28 98 1010.2
20260507162520 20 0 0.0 0.0 0.00 0.48 0.28 97 1010.2
20260507162020 20 0 0.0 0.0 0.00 0.48 0.28 97 1010.0
20260507161541 20 0 0.0 0.0 0.00 0.48 0.28 97 1010.3
20260507161019 20 0 0.0 0.0 0.00 0.48 0.28 97 1010.4
20260507160520 20 0 0.0 0.0 0.00 0.48 0.28 98 1010.4
20260507160045 20 0 0.0 0.0 0.00 0.48 0.28 97 1010.3
20260507155519 20 0 0.0 0.0 0.00 0.48 0.28 97 1010.2
20260507155019 20 0 0.0 0.0 0.00 0.48 0.28 97 1010.4
20260507154538 20 0 0.0 1.6 0.00 0.48 0.28 97 1010.5
20260507154019 20 0 0.0 1.6 0.00 0.48 0.28 97 1010.5
20260507153519 20 0 0.0 1.6 0.03 0.48 0.28 97 1010.7
20260507153043 20 0 0.0 0.0 0.03 0.48 0.28 97 1010.9
20260507152519 20 0 0.0 1.6 0.03 0.48 0.28 97 1010.8
20260507152020 20 0 0.0 4.8 0.03 0.48 0.28 97 1010.9
20260507151535 20 0 0.0 4.8 0.03 0.48 0.28 97 1011.0
20260507151021 20 290 0.0 8.0 0.03 0.48 0.28 97 1011.1
20260507150520 20 0 0.0 8.0 0.03 0.48 0.28 97 1011.2
20260507150036 20 0 0.0 9.7 0.03 0.48 0.28 97 1011.3
20260507145519 20 0 0.0 9.7 0.05 0.48 0.28 97 1011.3
20260507145025 20 0 1.6 4.8 0.05 0.48 0.28 97 1011.1
20260507144535 20 0 0.0 0.0 0.05 0.48 0.28 97 1010.2
20260507144020 20 0 0.0 0.0 0.05 0.48 0.28 97 1010.4
20260507143519 20 0 0.0 0.0 0.03 0.46 0.25 97 1010.4
20260507143034 20 0 0.0 0.0 0.03 0.46 0.25 97 1010.1
20260507142521 20 0 0.0 0.0 0.03 0.46 0.25 97 1010.0
20260507142019 20 0 0.0 1.6 0.03 0.46 0.25 97 1010.0
20260507141543 20 0 0.0 1.6 0.03 0.46 0.25 97 1010.1
20260507141022 20 0 0.0 4.8 0.03 0.46 0.25 97 1010.2
20260507140522 20 0 0.0 4.8 0.05 0.46 0.25 97 1010.3
20260507140038 20 0 0.0 0.0 0.05 0.46 0.25 97 1010.4
20260507135519 20 0 0.0 0.0 0.03 0.43 0.23 97 1010.4
20260507135020 20 0 0.0 1.6 0.03 0.43 0.23 97 1010.6
20260507134536 20 0 0.0 1.6 0.03 0.43 0.23 97 1010.4
20260507134021 20 0 0.0 0.0 0.05 0.43 0.23 97 1010.3
20260507133520 20 0 0.0 0.0 0.05 0.43 0.23 97 1010.3
20260507133032 20 0 0.0 0.0 0.05 0.43 0.23 97 1010.4
20260507132519 20 0 0.0 0.0 0.05 0.43 0.23 97 1010.7
20260507132020 20 0 0.0 0.0 0.05 0.43 0.23 97 1011.1
20260507131536 20 0 0.0 0.0 0.05 0.43 0.23 97 1011.3
20260507131020 20 0 0.0 1.6 0.05 0.43 0.23 97 1011.3
20260507130519 20 0 0.0 1.6 0.03 0.41 0.20 97 1011.3
20260507130050 20 0 0.0 1.6 0.03 0.41 0.20 97 1011.4
20260507125519 20 0 0.0 0.0 0.03 0.41 0.20 97 1011.2
20260507125020 20 0 0.0 1.6 0.03 0.41 0.20 97 1010.7
20260507124555 20 0 0.0 1.6 0.03 0.41 0.20 97 1010.4
20260507124021 19 0 0.0 0.0 0.03 0.38 0.18 97 1010.3
20260507123519 19 0 0.0 0.0 0.03 0.38 0.18 97 1010.1
20260507123036 19 0 0.0 0.0 0.03 0.38 0.18 97 1010.1
20260507122519 19 0 0.0 0.0 0.03 0.38 0.18 97 1010.0
20260507122019 19 0 0.0 0.0 0.05 0.38 0.18 97 1010.1
20260507121537 19 0 0.0 0.0 0.05 0.38 0.18 97 1010.2
20260507121020 19 0 0.0 0.0 0.05 0.38 0.18 97 1010.1
20260507120524 19 0 0.0 0.0 0.05 0.38 0.18 97 1010.1
20260507120035 19 0 0.0 1.6 0.05 0.38 0.18 97 1009.9
20260507115520 19 0 0.0 1.6 0.05 0.38 0.18 96 1010.3
20260507115024 19 0 0.0 3.2 0.05 0.38 0.18 96 1009.6
20260507114544 19 0 0.0 3.2 0.05 0.38 0.18 96 1009.9
20260507114020 19 0 0.0 3.2 0.03 0.36 0.15 96 1010.1
20260507113519 19 0 0.0 1.6 0.03 0.36 0.15 96 1010.6
20260507113032 19 0 0.0 3.2 0.03 0.36 0.15 96 1011.1
20260507112519 19 0 0.0 4.8 0.03 0.36 0.15 96 1011.6
20260507112019 19 0 0.0 4.8 0.00 0.33 0.13 96 1012.3
20260507111538 19 0 0.0 0.0 0.00 0.33 0.13 96 1012.6
20260507111019 19 0 0.0 1.6 0.00 0.33 0.13 96 1012.3
20260507110520 19 0 0.0 9.7 0.00 0.33 0.13 96 1012.1
20260507110043 19 0 0.0 9.7 0.00 0.33 0.13 96 1012.2
20260507105519 19 0 0.0 3.2 0.00 0.33 0.13 96 1012.3
20260507105020 19 0 0.0 4.8 0.00 0.33 0.13 96 1012.3
20260507104540 19 0 0.0 4.8 0.00 0.33 0.13 96 1012.5
20260507104022 19 0 0.0 3.2 0.00 0.33 0.13 96 1012.1
20260507103520 19 0 0.0 3.2 0.00 0.33 0.13 96 1011.8
20260507103040 19 0 0.0 3.2 0.03 0.33 0.13 96 1011.7
20260507102519 19 0 0.0 3.2 0.03 0.33 0.13 96 1011.5
20260507102020 19 0 0.0 3.2 0.03 0.33 0.13 96 1011.6
20260507101535 19 0 0.0 3.2 0.03 0.33 0.13 96 1011.6
20260507101020 19 0 0.0 3.2 0.03 0.33 0.13 96 1011.6
20260507100520 19 0 0.0 3.2 0.03 0.33 0.13 96 1011.5
20260507100036 19 0 0.0 0.0 0.03 0.33 0.13 96 1011.6
20260507095520 19 0 0.0 0.0 0.03 0.33 0.13 96 1011.5
20260507095022 19 0 0.0 0.0 0.03 0.33 0.13 96 1011.6
20260507094536 19 0 0.0 0.0 0.03 0.33 0.13 96 1011.9
20260507094019 19 0 0.0 0.0 0.03 0.33 0.13 96 1012.2
20260507093519 19 0 0.0 1.6 0.03 0.33 0.13 96 1012.3
20260507093040 19 0 0.0 1.6 0.03 0.30 0.10 96 1012.1
20260507092521 19 0 0.0 0.0 0.03 0.30 0.10 96 1012.2
20260507092019 19 0 0.0 0.0 0.03 0.30 0.10 95 1012.2
20260507091541 19 0 0.0 0.0 0.03 0.30 0.10 96 1012.1
20260507091020 19 0 0.0 0.0 0.03 0.30 0.10 96 1012.3
20260507090520 19 0 0.0 3.2 0.03 0.30 0.10 96 1012.2
20260507090035 19 0 0.0 3.2 0.03 0.30 0.10 96 1012.2
20260507085520 19 0 0.0 0.0 0.03 0.30 0.10 96 1012.2
20260507085020 19 0 0.0 0.0 0.03 0.30 0.10 96 1012.2
20260507084534 19 0 0.0 0.0 0.03 0.30 0.10 95 1012.2
20260507084019 19 0 0.0 0.0 0.03 0.30 0.10 95 1011.9
20260507083519 19 0 0.0 0.0 0.03 0.30 0.10 95 1011.6
20260507083036 19 0 0.0 0.0 0.00 0.28 0.08 95 1011.4
20260507082521 19 0 0.0 0.0 0.00 0.28 0.08 95 1011.5
20260507082019 19 0 0.0 1.6 0.00 0.28 0.08 95 1011.6
20260507081536 19 0 0.0 1.6 0.00 0.28 0.08 95 1011.7
20260507081019 19 0 0.0 1.6 0.00 0.28 0.08 95 1011.8
20260507080519 19 0 0.0 1.6 0.00 0.28 0.08 95 1011.8
20260507080042 19 0 0.0 1.6 0.00 0.28 0.08 95 1011.9
20260507075519 19 0 0.0 0.0 0.03 0.28 0.08 95 1011.9
20260507075020 19 0 0.0 0.0 0.03 0.28 0.08 95 1011.8
20260507074538 19 0 0.0 0.0 0.03 0.28 0.08 95 1011.7
20260507074019 19 0 0.0 0.0 0.03 0.28 0.08 95 1011.8
20260507073519 19 0 0.0 0.0 0.03 0.28 0.08 95 1011.8
20260507073042 19 0 0.0 0.0 0.03 0.28 0.08 95 1011.8
20260507072517 19 0 0.0 0.0 0.03 0.28 0.08 95 1011.8
20260507072018 19 0 0.0 0.0 0.03 0.28 0.08 95 1011.9